| time (UTC) | temp C | wind direction | speed KPH | gust KPH | rain 1hr cm | rain 24hr cm | rain mn cm | humidity % | barometer mb |
| 20260831033904 | 12 | 217 | 22.5 | 56.3 | 0.00 | 0.05 | 0.00 | 73 | 1001.3 |
| 20260831033404 | 12 | 224 | 22.5 | 69.2 | 0.00 | 0.05 | 0.00 | 74 | 1001.4 |
| 20260831031404 | 12 | 213 | 22.5 | 59.5 | 0.00 | 0.05 | 0.00 | 74 | 1001.4 |
| 20260831030404 | 12 | 250 | 29.0 | 56.3 | 0.00 | 0.05 | 0.00 | 76 | 1001.2 |
| 20260831025404 | 12 | 216 | 22.5 | 62.8 | 0.00 | 0.05 | 0.00 | 76 | 1001.4 |
| 20260831024904 | 12 | 259 | 27.4 | 49.9 | 0.00 | 0.05 | 0.00 | 73 | 1001.2 |
| 20260831024405 | 13 | 259 | 25.7 | 56.3 | 0.00 | 0.05 | 0.00 | 69 | 1001.1 |
| 20260831022904 | 13 | 234 | 22.5 | 56.3 | 0.00 | 0.05 | 0.00 | 69 | 1000.7 |
| 20260831022404 | 14 | 207 | 27.4 | 56.3 | 0.00 | 0.05 | 0.00 | 69 | 1000.6 |
| 20260831021904 | 13 | 227 | 20.9 | 51.5 | 0.00 | 0.05 | 0.00 | 68 | 1000.7 |
| 20260831021404 | 14 | 218 | 25.7 | 48.3 | 0.00 | 0.05 | 0.00 | 67 | 1000.4 |
| 20260831020904 | 13 | 228 | 25.7 | 57.9 | 0.00 | 0.05 | 0.00 | 68 | 1000.6 |
| 20260831020404 | 13 | 214 | 22.5 | 70.8 | 0.00 | 0.05 | 0.00 | 69 | 1000.4 |
| 20260831015904 | 13 | 209 | 29.0 | 56.3 | 0.00 | 0.05 | 0.00 | 68 | 1000.5 |
| 20260831015404 | 13 | 218 | 27.4 | 53.1 | 0.00 | 0.05 | 0.00 | 68 | 1000.6 |
| 20260831014905 | 13 | 223 | 27.4 | 72.4 | 0.00 | 0.05 | 0.00 | 67 | 1000.3 |
| 20260831014404 | 14 | 213 | 25.7 | 56.3 | 0.00 | 0.05 | 0.00 | 69 | 1000.5 |
| 20260831013904 | 13 | 208 | 25.7 | 51.5 | 0.00 | 0.05 | 0.00 | 72 | 1000.7 |
| 20260831013404 | 13 | 198 | 22.5 | 49.9 | 0.00 | 0.05 | 0.00 | 73 | 1000.6 |
| 20260831012904 | 13 | 321 | 29.0 | 62.8 | 0.00 | 0.05 | 0.00 | 71 | 1000.3 |
| 20260831012405 | 13 | 228 | 29.0 | 78.9 | 0.00 | 0.05 | 0.00 | 71 | 1000.1 |
| 20260831011904 | 13 | 228 | 27.4 | 69.2 | 0.00 | 0.05 | 0.00 | 71 | 1000.2 |
| 20260831011404 | 13 | 213 | 24.1 | 53.1 | 0.00 | 0.05 | 0.00 | 73 | 1000.3 |
| 20260831010904 | 12 | 253 | 20.9 | 48.3 | 0.00 | 0.05 | 0.00 | 74 | 1000.3 |
| 20260831010404 | 12 | 300 | 29.0 | 61.2 | 0.00 | 0.05 | 0.00 | 76 | 1000.3 |
| 20260831005904 | 12 | 201 | 25.7 | 62.8 | 0.00 | 0.05 | 0.00 | 79 | 1000.5 |
| 20260831005405 | 13 | 287 | 25.7 | 53.1 | 0.00 | 0.05 | 0.00 | 77 | 1000.7 |
| 20260831004906 | 13 | 237 | 19.3 | 46.7 | 0.00 | 0.05 | 0.00 | 77 | 1000.6 |
| 20260831004405 | 13 | 274 | 20.9 | 41.8 | 0.00 | 0.05 | 0.00 | 76 | 1000.4 |
| 20260831003904 | 13 | 252 | 19.3 | 51.5 | 0.00 | 0.05 | 0.00 | 76 | 1000.6 |
| 20260831003404 | 13 | 257 | 19.3 | 51.5 | 0.00 | 0.05 | 0.00 | 76 | 1000.5 |
| 20260831002904 | 13 | 211 | 25.7 | 62.8 | 0.00 | 0.05 | 0.00 | 75 | 1000.5 |
| 20260831002405 | 13 | 300 | 25.7 | 62.8 | 0.00 | 0.05 | 0.00 | 75 | 1000.5 |
| 20260831001404 | 13 | 211 | 20.9 | 48.3 | 0.00 | 0.05 | 0.00 | 76 | 1001.0 |
| 20260831000905 | 13 | 270 | 22.5 | 49.9 | 0.00 | 0.05 | 0.00 | 77 | 1001.1 |
| 20260831000406 | 13 | 209 | 25.7 | 40.2 | 0.00 | 0.05 | 0.00 | 76 | 1000.9 |
| 20260830235905 | 13 | 274 | 22.5 | 48.3 | 0.00 | 0.05 | 0.00 | 76 | 1000.9 |
| 20260830235404 | 13 | 247 | 20.9 | 45.1 | 0.00 | 0.05 | 0.00 | 75 | 1000.7 |
| 20260830234904 | 13 | 293 | 29.0 | 56.3 | 0.00 | 0.05 | 0.00 | 73 | 1000.9 |
| 20260830234404 | 13 | 214 | 19.3 | 56.3 | 0.00 | 0.05 | 0.00 | 74 | 1000.8 |
| 20260830233904 | 13 | 304 | 24.1 | 46.7 | 0.00 | 0.05 | 0.00 | 73 | 1000.9 |
| 20260830233405 | 13 | 216 | 20.9 | 53.1 | 0.00 | 0.05 | 0.00 | 73 | 1000.8 |
| 20260830232904 | 13 | 232 | 19.3 | 41.8 | 0.00 | 0.05 | 0.00 | 73 | 1000.9 |
| 20260830232404 | 13 | 256 | 27.4 | 62.8 | 0.00 | 0.05 | 0.00 | 73 | 1000.9 |
| 20260830231904 | 13 | 209 | 22.5 | 46.7 | 0.00 | 0.05 | 0.00 | 75 | 1000.9 |
| 20260830231404 | 13 | 218 | 20.9 | 59.5 | 0.00 | 0.05 | 0.00 | 76 | 1000.9 |
| 20260830230408 | 13 | 265 | 25.7 | 53.1 | 0.00 | 0.05 | 0.00 | 74 | 1000.8 |
| 20260830225905 | 13 | 225 | 24.1 | 51.5 | 0.00 | 0.05 | 0.00 | 73 | 1000.9 |
| 20260830225405 | 13 | 235 | 20.9 | 41.8 | 0.00 | 0.05 | 0.00 | 73 | 1000.9 |
| 20260830224904 | 13 | 244 | 19.3 | 40.2 | 0.00 | 0.05 | 0.00 | 72 | 1001.0 |
| 20260830224404 | 13 | 206 | 25.7 | 48.3 | 0.00 | 0.05 | 0.00 | 72 | 1000.9 |
| 20260830223905 | 13 | 226 | 25.7 | 56.3 | 0.00 | 0.05 | 0.00 | 72 | 1001.0 |
| 20260830223405 | 13 | 207 | 19.3 | 57.9 | 0.00 | 0.05 | 0.00 | 73 | 1001.1 |
| 20260830222904 | 13 | 198 | 29.0 | 59.5 | 0.00 | 0.05 | 0.00 | 73 | 1001.1 |
| 20260830222405 | 13 | 202 | 27.4 | 49.9 | 0.00 | 0.05 | 0.00 | 75 | 1000.9 |
| 20260830221904 | 13 | 231 | 25.7 | 45.1 | 0.00 | 0.05 | 0.00 | 75 | 1000.8 |
| 20260830221405 | 13 | 242 | 27.4 | 41.8 | 0.00 | 0.05 | 0.00 | 75 | 1001.0 |
| 20260830220904 | 13 | 226 | 27.4 | 57.9 | 0.00 | 0.05 | 0.00 | 75 | 1000.7 |
| 20260830220405 | 13 | 248 | 25.7 | 61.2 | 0.00 | 0.05 | 0.00 | 76 | 1000.6 |
| 20260830215904 | 13 | 218 | 25.7 | 57.9 | 0.00 | 0.05 | 0.00 | 75 | 1000.5 |
| 20260830215404 | 12 | 232 | 22.5 | 41.8 | 0.00 | 0.05 | 0.00 | 75 | 1000.4 |
| 20260830214905 | 13 | 203 | 22.5 | 41.8 | 0.00 | 0.05 | 0.00 | 75 | 1001.0 |
| 20260830214404 | 13 | 246 | 19.3 | 51.5 | 0.00 | 0.05 | 0.00 | 75 | 1000.9 |
| 20260830213905 | 13 | 214 | 19.3 | 57.9 | 0.00 | 0.05 | 0.00 | 74 | 1001.1 |
| 20260830213405 | 13 | 299 | 25.7 | 59.5 | 0.00 | 0.05 | 0.00 | 73 | 1001.0 |
| 20260830212904 | 12 | 202 | 22.5 | 49.9 | 0.00 | 0.05 | 0.00 | 74 | 1000.9 |
| 20260830212404 | 12 | 199 | 20.9 | 45.1 | 0.00 | 0.05 | 0.00 | 75 | 1001.4 |
| 20260830211404 | 12 | 213 | 19.3 | 40.2 | 0.00 | 0.05 | 0.00 | 78 | 1001.3 |
| 20260830210904 | 12 | 243 | 14.5 | 45.1 | 0.00 | 0.05 | 0.00 | 79 | 1001.4 |
| 20260830210404 | 12 | 212 | 22.5 | 51.5 | 0.00 | 0.05 | 0.00 | 79 | 1001.5 |
| 20260830205905 | 12 | 210 | 24.1 | 53.1 | 0.00 | 0.05 | 0.00 | 77 | 1001.5 |
| 20260830205404 | 12 | 207 | 19.3 | 57.9 | 0.00 | 0.05 | 0.00 | 76 | 1001.2 |
| 20260830204904 | 12 | 224 | 25.7 | 56.3 | 0.00 | 0.05 | 0.00 | 76 | 1001.6 |
| 20260830204404 | 12 | 211 | 20.9 | 59.5 | 0.00 | 0.05 | 0.00 | 75 | 1001.5 |
| 20260830203904 | 12 | 215 | 14.5 | 48.3 | 0.00 | 0.05 | 0.00 | 75 | 1001.6 |
| 20260830203405 | 12 | 258 | 20.9 | 48.3 | 0.00 | 0.05 | 0.00 | 75 | 1001.7 |
| 20260830202904 | 12 | 199 | 16.1 | 48.3 | 0.00 | 0.05 | 0.00 | 75 | 1001.6 |
| 20260830202405 | 12 | 176 | 19.3 | 48.3 | 0.00 | 0.05 | 0.00 | 76 | 1001.6 |
| 20260830201905 | 12 | 188 | 20.9 | 53.1 | 0.00 | 0.05 | 0.00 | 77 | 1001.5 |
| 20260830201406 | 12 | 210 | 27.4 | 57.9 | 0.00 | 0.05 | 0.00 | 77 | 1001.5 |
| 20260830200905 | 12 | 209 | 22.5 | 51.5 | 0.00 | 0.05 | 0.00 | 78 | 1001.3 |
| 20260830200404 | 12 | 206 | 20.9 | 49.9 | 0.00 | 0.05 | 0.00 | 78 | 1001.0 |
| 20260830195904 | 12 | 250 | 25.7 | 48.3 | 0.00 | 0.05 | 0.00 | 78 | 1000.9 |
| 20260830195404 | 12 | 184 | 22.5 | 56.3 | 0.00 | 0.05 | 0.00 | 77 | 1001.0 |
| 20260830194904 | 12 | 218 | 20.9 | 56.3 | 0.00 | 0.05 | 0.00 | 78 | 1001.1 |
| 20260830194408 | 12 | 227 | 25.7 | 61.2 | 0.00 | 0.05 | 0.00 | 78 | 1001.0 |
| 20260830193905 | 12 | 250 | 20.9 | 46.7 | 0.00 | 0.05 | 0.00 | 78 | 1001.0 |
| 20260830192904 | 11 | 211 | 16.1 | 46.7 | 0.00 | 0.05 | 0.00 | 78 | 1001.0 |
| 20260830192405 | 11 | 215 | 16.1 | 38.6 | 0.00 | 0.05 | 0.00 | 78 | 1001.0 |
| 20260830191905 | 11 | 305 | 17.7 | 41.8 | 0.00 | 0.05 | 0.00 | 78 | 1001.0 |
| 20260830190904 | 11 | 210 | 25.7 | 61.2 | 0.00 | 0.05 | 0.00 | 79 | 1000.8 |
| 20260830190404 | 11 | 212 | 22.5 | 48.3 | 0.00 | 0.05 | 0.00 | 80 | 1000.9 |
| 20260830185404 | 11 | 271 | 19.3 | 46.7 | 0.00 | 0.05 | 0.00 | 81 | 1000.9 |
| 20260830184404 | 11 | 231 | 22.5 | 38.6 | 0.00 | 0.05 | 0.00 | 81 | 1000.7 |
| 20260830183404 | 11 | 235 | 22.5 | 62.8 | 0.00 | 0.05 | 0.00 | 81 | 1000.8 |
| 20260830182904 | 11 | 221 | 22.5 | 49.9 | 0.00 | 0.05 | 0.00 | 81 | 1000.6 |
| 20260830182404 | 11 | 215 | 24.1 | 45.1 | 0.00 | 0.05 | 0.00 | 81 | 1000.7 |
| 20260830181904 | 11 | 207 | 19.3 | 40.2 | 0.00 | 0.05 | 0.00 | 81 | 1000.4 |
| 20260830181405 | 11 | 196 | 22.5 | 51.5 | 0.00 | 0.05 | 0.00 | 80 | 1000.6 |
| 20260830180904 | 11 | 221 | 19.3 | 46.7 | 0.00 | 0.05 | 0.00 | 80 | 1000.5 |
| 20260830180404 | 11 | 209 | 22.5 | 53.1 | 0.00 | 0.05 | 0.00 | 79 | 1000.5 |
| 20260830175904 | 11 | 222 | 17.7 | 41.8 | 0.00 | 0.05 | 0.00 | 81 | 1000.5 |
| 20260830175404 | 11 | 264 | 19.3 | 53.1 | 0.00 | 0.05 | 0.00 | 81 | 1000.5 |
| 20260830174904 | 12 | 214 | 24.1 | 56.3 | 0.00 | 0.05 | 0.00 | 81 | 1000.0 |
| 20260830174404 | 12 | 352 | 22.5 | 45.1 | 0.00 | 0.05 | 0.00 | 82 | 1000.0 |
| 20260830173904 | 12 | 218 | 20.9 | 61.2 | 0.00 | 0.05 | 0.00 | 83 | 1000.0 |
| 20260830173404 | 12 | 242 | 16.1 | 40.2 | 0.00 | 0.05 | 0.00 | 83 | 999.7 |
| 20260830172904 | 11 | 253 | 25.7 | 45.1 | 0.00 | 0.05 | 0.00 | 83 | 999.8 |
| 20260830172404 | 11 | 332 | 20.9 | 38.6 | 0.00 | 0.05 | 0.00 | 84 | 999.9 |
| 20260830171904 | 11 | 253 | 19.3 | 53.1 | 0.00 | 0.05 | 0.00 | 83 | 1000.3 |
| 20260830170904 | 11 | 305 | 25.7 | 56.3 | 0.00 | 0.05 | 0.00 | 82 | 1000.4 |
| 20260830170404 | 11 | 209 | 19.3 | 37.0 | 0.00 | 0.05 | 0.00 | 82 | 1000.4 |
| 20260830165904 | 12 | 263 | 25.7 | 40.2 | 0.00 | 0.05 | 0.00 | 80 | 1000.5 |
| 20260830165404 | 12 | 217 | 19.3 | 48.3 | 0.00 | 0.05 | 0.00 | 79 | 1000.4 |
| 20260830164404 | 12 | 273 | 22.5 | 53.1 | 0.00 | 0.05 | 0.00 | 79 | 1000.2 |
| 20260830163904 | 12 | 236 | 19.3 | 41.8 | 0.00 | 0.05 | 0.00 | 81 | 1000.5 |
| 20260830162904 | 11 | 234 | 16.1 | 38.6 | 0.00 | 0.08 | 0.00 | 80 | 1000.8 |
| 20260830162404 | 12 | 229 | 17.7 | 37.0 | 0.00 | 0.08 | 0.00 | 79 | 1000.8 |
| 20260830161408 | 12 | 217 | 20.9 | 41.8 | 0.00 | 0.08 | 0.00 | 78 | 1000.8 |
| 20260830160905 | 12 | 222 | 14.5 | 59.5 | 0.00 | 0.08 | 0.00 | 77 | 1001.1 |
| 20260830160404 | 12 | 217 | 27.4 | 56.3 | 0.00 | 0.08 | 0.00 | 77 | 1000.7 |
| 20260830155904 | 11 | 200 | 16.1 | 49.9 | 0.00 | 0.08 | 0.00 | 78 | 1000.9 |
| 20260830155404 | 11 | 269 | 16.1 | 37.0 | 0.00 | 0.08 | 0.00 | 78 | 1000.9 |
| 20260830154904 | 11 | 319 | 19.3 | 49.9 | 0.00 | 0.08 | 0.00 | 78 | 1000.9 |
| 20260830154404 | 11 | 204 | 25.7 | 41.8 | 0.00 | 0.08 | 0.00 | 78 | 1001.1 |
| 20260830153904 | 11 | 257 | 20.9 | 48.3 | 0.00 | 0.08 | 0.00 | 78 | 1001.0 |
| 20260830152904 | 11 | 232 | 19.3 | 40.2 | 0.00 | 0.08 | 0.00 | 78 | 1001.3 |
| 20260830152405 | 11 | 208 | 25.7 | 53.1 | 0.00 | 0.08 | 0.00 | 78 | 1001.3 |
| 20260830151904 | 11 | 205 | 11.3 | 35.4 | 0.00 | 0.08 | 0.00 | 77 | 1001.4 |
| 20260830151404 | 11 | 206 | 14.5 | 56.3 | 0.00 | 0.08 | 0.00 | 77 | 1001.3 |
| 20260830150904 | 11 | 280 | 17.7 | 38.6 | 0.00 | 0.08 | 0.00 | 76 | 1001.7 |
| 20260830150403 | 11 | 199 | 19.3 | 41.8 | 0.00 | 0.08 | 0.00 | 75 | 1001.6 |
| 20260830145904 | 11 | 213 | 14.5 | 25.7 | 0.00 | 0.08 | 0.00 | 75 | 1001.7 |
| 20260830145404 | 11 | 206 | 19.3 | 46.7 | 0.00 | 0.08 | 0.00 | 76 | 1001.6 |
| 20260830144904 | 11 | 227 | 14.5 | 32.2 | 0.00 | 0.08 | 0.00 | 76 | 1001.8 |
| 20260830144404 | 11 | 224 | 11.3 | 38.6 | 0.00 | 0.08 | 0.00 | 75 | 1001.9 |
| 20260830142904 | 11 | 295 | 14.5 | 29.0 | 0.00 | 0.08 | 0.00 | 75 | 1002.1 |
| 20260830142404 | 11 | 225 | 12.9 | 45.1 | 0.00 | 0.08 | 0.00 | 74 | 1002.3 |
| 20260830141904 | 11 | 208 | 14.5 | 40.2 | 0.00 | 0.08 | 0.00 | 75 | 1002.4 |
| 20260830141404 | 11 | 303 | 14.5 | 37.0 | 0.00 | 0.08 | 0.00 | 74 | 1002.5 |
| 20260830140904 | 11 | 199 | 14.5 | 32.2 | 0.00 | 0.08 | 0.00 | 74 | 1002.5 |
| 20260830140404 | 11 | 262 | 16.1 | 41.8 | 0.00 | 0.08 | 0.00 | 74 | 1002.3 |
| 20260830135904 | 11 | 212 | 16.1 | 48.3 | 0.00 | 0.08 | 0.00 | 75 | 1002.5 |
| 20260830135405 | 11 | 213 | 16.1 | 38.6 | 0.00 | 0.08 | 0.00 | 75 | 1002.4 |
| 20260830134904 | 11 | 230 | 12.9 | 37.0 | 0.00 | 0.08 | 0.00 | 75 | 1002.4 |
| 20260830133905 | 11 | 184 | 14.5 | 32.2 | 0.00 | 0.08 | 0.00 | 75 | 1002.5 |
| 20260830133403 | 11 | 223 | 4.8 | 32.2 | 0.00 | 0.08 | 0.00 | 75 | 1002.5 |
| 20260830132403 | 11 | 208 | 14.5 | 38.6 | 0.00 | 0.08 | 0.00 | 74 | 1002.5 |
| 20260830130904 | 11 | 204 | 16.1 | 40.2 | 0.00 | 0.08 | 0.00 | 75 | 1002.4 |
| 20260830130404 | 11 | 191 | 16.1 | 33.8 | 0.00 | 0.08 | 0.00 | 75 | 1002.3 |
| 20260830125907 | 11 | 214 | 12.9 | 35.4 | 0.05 | 0.08 | 0.00 | 75 | 1002.3 |
| 20260830125406 | 11 | 195 | 17.7 | 40.2 | 0.05 | 0.08 | 0.00 | 75 | 1002.2 |
| 20260830124907 | 11 | 203 | 16.1 | 35.4 | 0.05 | 0.08 | 0.00 | 76 | 1002.1 |
| 20260830123906 | 11 | 281 | 22.5 | 41.8 | 0.05 | 0.08 | 0.00 | 76 | 1002.1 |
| 20260830123406 | 11 | 287 | 8.0 | 27.4 | 0.05 | 0.08 | 0.00 | 77 | 1002.3 |
| 20260830122906 | 11 | 208 | 17.7 | 38.6 | 0.05 | 0.08 | 0.00 | 77 | 1002.2 |
| 20260830121906 | 11 | 196 | 17.7 | 41.8 | 0.05 | 0.08 | 0.00 | 77 | 1002.1 |
| 20260830121406 | 11 | 315 | 11.3 | 35.4 | 0.05 | 0.08 | 0.00 | 76 | 1002.2 |
| 20260830120906 | 11 | 207 | 14.5 | 38.6 | 0.05 | 0.08 | 0.00 | 76 | 1002.2 |
| 20260830115906 | 11 | 206 | 14.5 | 29.0 | 0.00 | 0.05 | 0.05 | 75 | 1002.1 |
| 20260830115407 | 11 | 218 | 16.1 | 41.8 | 0.00 | 0.05 | 0.05 | 74 | 1002.2 |
| 20260830114906 | 11 | 227 | 14.5 | 38.6 | 0.00 | 0.05 | 0.05 | 75 | 1002.3 |
| 20260830114407 | 11 | 199 | 14.5 | 32.2 | 0.00 | 0.05 | 0.05 | 74 | 1002.3 |
| 20260830113907 | 11 | 283 | 14.5 | 40.2 | 0.00 | 0.05 | 0.05 | 74 | 1002.4 |
| 20260830112906 | 11 | 237 | 14.5 | 32.2 | 0.00 | 0.05 | 0.05 | 74 | 1002.5 |
| 20260830112407 | 11 | 209 | 14.5 | 32.2 | 0.00 | 0.05 | 0.05 | 75 | 1002.5 |
| 20260830111907 | 11 | 205 | 19.3 | 37.0 | 0.00 | 0.05 | 0.05 | 74 | 1002.4 |
| 20260830111406 | 11 | 203 | 16.1 | 48.3 | 0.00 | 0.05 | 0.05 | 74 | 1002.3 |
| 20260830110907 | 11 | 219 | 14.5 | 38.6 | 0.00 | 0.05 | 0.05 | 74 | 1002.4 |
| 20260830105906 | 11 | 220 | 17.7 | 48.3 | 0.00 | 0.05 | 0.05 | 75 | 1002.3 |
| 20260830105406 | 11 | 226 | 16.1 | 37.0 | 0.00 | 0.05 | 0.05 | 75 | 1002.1 |
| 20260830104907 | 11 | 325 | 12.9 | 24.1 | 0.00 | 0.05 | 0.05 | 75 | 1002.2 |
| 20260830104407 | 11 | 228 | 11.3 | 38.6 | 0.00 | 0.05 | 0.05 | 75 | 1002.2 |
| 20260830103906 | 11 | 238 | 16.1 | 38.6 | 0.00 | 0.05 | 0.05 | 74 | 1002.1 |
| 20260830101406 | 11 | 222 | 14.5 | 38.6 | 0.00 | 0.05 | 0.05 | 74 | 1001.6 |
| 20260830100907 | 11 | 357 | 14.5 | 40.2 | 0.00 | 0.05 | 0.05 | 74 | 1001.6 |
| 20260830095906 | 11 | 266 | 14.5 | 37.0 | 0.00 | 0.05 | 0.05 | 75 | 1001.3 |
| 20260830095406 | 11 | 295 | 16.1 | 38.6 | 0.00 | 0.05 | 0.05 | 74 | 1001.3 |
| 20260830094907 | 11 | 203 | 16.1 | 46.7 | 0.00 | 0.05 | 0.05 | 74 | 1001.3 |
| 20260830094407 | 11 | 212 | 19.3 | 38.6 | 0.00 | 0.05 | 0.05 | 74 | 1001.5 |
| 20260830093907 | 11 | 208 | 19.3 | 46.7 | 0.00 | 0.05 | 0.05 | 74 | 1001.3 |
| 20260830093407 | 11 | 313 | 11.3 | 38.6 | 0.00 | 0.05 | 0.05 | 74 | 1001.3 |
| 20260830092906 | 11 | 226 | 16.1 | 41.8 | 0.00 | 0.05 | 0.05 | 73 | 1001.2 |
| 20260830091906 | 11 | 213 | 22.5 | 56.3 | 0.00 | 0.05 | 0.05 | 72 | 1001.1 |
| 20260830090906 | 12 | 214 | 22.5 | 46.7 | 0.00 | 0.05 | 0.05 | 70 | 1000.7 |
| 20260830090406 | 12 | 220 | 19.3 | 46.7 | 0.00 | 0.05 | 0.05 | 70 | 1000.7 |
| 20260830085906 | 12 | 209 | 24.1 | 56.3 | 0.00 | 0.05 | 0.05 | 70 | 1000.2 |
| 20260830085406 | 12 | 312 | 24.1 | 61.2 | 0.00 | 0.05 | 0.05 | 70 | 1000.2 |
| 20260830084907 | 12 | 250 | 22.5 | 48.3 | 0.00 | 0.05 | 0.05 | 71 | 1000.0 |
| 20260830084407 | 12 | 204 | 22.5 | 56.3 | 0.00 | 0.05 | 0.05 | 71 | 1000.0 |
| 20260830083407 | 12 | 266 | 20.9 | 45.1 | 0.00 | 0.05 | 0.05 | 71 | 999.9 |
| 20260830082906 | 12 | 202 | 22.5 | 48.3 | 0.00 | 0.05 | 0.05 | 71 | 1000.3 |
| 20260830082407 | 12 | 205 | 19.3 | 45.1 | 0.00 | 0.05 | 0.05 | 72 | 1000.2 |
| 20260830081907 | 12 | 231 | 20.9 | 40.2 | 0.00 | 0.05 | 0.05 | 72 | 999.8 |
| 20260830081406 | 12 | 219 | 20.9 | 46.7 | 0.00 | 0.05 | 0.05 | 71 | 1000.0 |
| 20260830080906 | 12 | 203 | 20.9 | 49.9 | 0.00 | 0.05 | 0.05 | 71 | 999.8 |
| 20260830080406 | 12 | 195 | 22.5 | 41.8 | 0.00 | 0.05 | 0.05 | 70 | 1000.0 |
| 20260830075907 | 12 | 216 | 20.9 | 49.9 | 0.00 | 0.05 | 0.05 | 71 | 999.9 |
| 20260830075406 | 12 | 206 | 20.9 | 37.0 | 0.00 | 0.05 | 0.05 | 70 | 1000.1 |
| 20260830074906 | 12 | 235 | 24.1 | 49.9 | 0.00 | 0.05 | 0.05 | 69 | 1000.0 |
| 20260830073906 | 12 | 214 | 17.7 | 41.8 | 0.00 | 0.05 | 0.05 | 71 | 999.8 |
| 20260830073406 | 12 | 237 | 19.3 | 41.8 | 0.00 | 0.05 | 0.05 | 71 | 999.9 |
| 20260830071906 | 12 | 212 | 22.5 | 53.1 | 0.00 | 0.05 | 0.05 | 72 | 999.7 |
| 20260830071406 | 12 | 212 | 20.9 | 41.8 | 0.00 | 0.05 | 0.05 | 73 | 999.6 |
| 20260830070407 | 12 | 209 | 19.3 | 46.7 | 0.00 | 0.05 | 0.05 | 74 | 999.6 |
| 20260830065906 | 12 | 202 | 22.5 | 46.7 | 0.00 | 0.05 | 0.05 | 75 | 999.5 |
| 20260830065406 | 12 | 227 | 20.9 | 38.6 | 0.00 | 0.05 | 0.05 | 76 | 999.5 |
| 20260830064906 | 12 | 208 | 25.7 | 51.5 | 0.00 | 0.05 | 0.05 | 77 | 999.5 |
| 20260830064406 | 12 | 244 | 20.9 | 53.1 | 0.00 | 0.05 | 0.05 | 77 | 999.2 |
| 20260830063407 | 12 | 211 | 19.3 | 46.7 | 0.00 | 0.05 | 0.05 | 77 | 999.3 |
| 20260830062907 | 12 | 217 | 22.5 | 41.8 | 0.00 | 0.05 | 0.05 | 78 | 999.2 |
| 20260830062406 | 12 | 249 | 20.9 | 45.1 | 0.00 | 0.05 | 0.05 | 78 | 999.1 |
| 20260830061906 | 12 | 225 | 20.9 | 40.2 | 0.00 | 0.05 | 0.05 | 77 | 999.2 |
| 20260830061406 | 12 | 211 | 20.9 | 49.9 | 0.00 | 0.05 | 0.05 | 76 | 999.0 |
| 20260830055906 | 13 | 209 | 27.4 | 48.3 | 0.00 | 0.05 | 0.05 | 74 | 998.8 |
| 20260830055407 | 13 | 221 | 20.9 | 49.9 | 0.00 | 0.05 | 0.05 | 74 | 998.9 |
| 20260830054907 | 13 | 251 | 22.5 | 45.1 | 0.00 | 0.05 | 0.05 | 73 | 998.9 |
| 20260830054406 | 13 | 219 | 22.5 | 59.5 | 0.00 | 0.05 | 0.05 | 73 | 998.8 |
| 20260830053906 | 13 | 199 | 22.5 | 49.9 | 0.00 | 0.05 | 0.05 | 72 | 998.9 |
| 20260830053406 | 13 | 204 | 20.9 | 41.8 | 0.00 | 0.05 | 0.05 | 73 | 998.7 |
| 20260830052906 | 13 | 195 | 20.9 | 49.9 | 0.00 | 0.05 | 0.05 | 73 | 998.8 |
| 20260830052407 | 13 | 206 | 17.7 | 53.1 | 0.00 | 0.05 | 0.05 | 73 | 998.7 |
| 20260830051907 | 13 | 216 | 17.7 | 49.9 | 0.00 | 0.05 | 0.05 | 73 | 998.7 |
| 20260830051406 | 13 | 218 | 20.9 | 48.3 | 0.00 | 0.05 | 0.05 | 73 | 998.8 |
| 20260830050907 | 13 | 256 | 20.9 | 40.2 | 0.00 | 0.05 | 0.05 | 73 | 999.0 |
| 20260830050407 | 13 | 197 | 24.1 | 49.9 | 0.00 | 0.05 | 0.05 | 72 | 998.8 |
| 20260830045906 | 13 | 206 | 16.1 | 45.1 | 0.00 | 0.05 | 0.05 | 73 | 998.8 |
| 20260830045406 | 13 | 308 | 20.9 | 41.8 | 0.00 | 0.05 | 0.05 | 73 | 998.8 |
| 20260830044906 | 14 | 212 | 19.3 | 45.1 | 0.00 | 0.05 | 0.05 | 72 | 998.6 |
| 20260830044406 | 14 | 201 | 25.7 | 64.4 | 0.03 | 0.05 | 0.05 | 72 | 998.5 |
| 20260830043907 | 14 | 229 | 19.3 | 40.2 | 0.03 | 0.05 | 0.05 | 72 | 998.7 |
| 20260830043406 | 15 | 294 | 20.9 | 56.3 | 0.03 | 0.05 | 0.05 | 72 | 998.7 |
| 20260830042906 | 15 | 246 | 20.9 | 51.5 | 0.03 | 0.05 | 0.05 | 72 | 998.9 |
| 20260830042406 | 15 | 200 | 27.4 | 66.0 | 0.03 | 0.05 | 0.05 | 71 | 999.0 |
| 20260830041906 | 15 | 214 | 20.9 | 49.9 | 0.03 | 0.05 | 0.05 | 70 | 998.8 |
| 20260830040906 | 15 | 298 | 14.5 | 37.0 | 0.03 | 0.05 | 0.05 | 70 | 999.2 |
| 20260830040406 | 15 | 213 | 25.7 | 53.1 | 0.03 | 0.05 | 0.05 | 69 | 999.2 |
| 20260830035906 | 15 | 227 | 12.9 | 48.3 | 0.03 | 0.05 | 0.05 | 70 | 999.5 |
| 20260830035406 | 15 | 198 | 17.7 | 56.3 | 0.03 | 0.05 | 0.05 | 69 | 999.4 |
| 20260830034906 | 15 | 199 | 29.0 | 59.5 | 0.03 | 0.05 | 0.05 | 67 | 999.4 |
| 20260830034406 | 16 | 205 | 24.1 | 41.8 | 0.00 | 0.03 | 0.03 | 66 | 999.6 |